Time,TemperatureF,DewpointF,PressureIn,WindDirection,WindDirectionDegrees,WindSpeedMPH,WindSpeedGustMPH,Humidity,HourlyPrecipIn,Conditions,Clouds,dailyrainin,SoftwareType,DateUTC
2013-01-12 00:03:00,54.0,50.0,30.00,South,178,4.0,7.0,86,0.00,,,0.00,,2013-01-12 05:03:00,
2013-01-12 00:12:00,54.0,50.0,30.00,South,178,4.0,7.0,86,0.00,,,0.00,,2013-01-12 05:12:00,
2013-01-12 00:22:00,54.0,50.0,30.00,South,180,4.0,9.0,87,0.00,,,0.00,,2013-01-12 05:22:00,
2013-01-12 00:32:00,55.0,51.0,30.01,South,172,4.0,6.0,87,0.00,,,0.00,,2013-01-12 05:32:00,
2013-01-12 00:42:00,55.0,51.0,30.01,South,172,4.0,6.0,87,0.00,,,0.00,,2013-01-12 05:42:00,
2013-01-12 00:52:00,55.0,52.0,30.00,South,173,3.0,6.0,88,0.00,,,0.00,,2013-01-12 05:52:00,
2013-01-12 01:02:00,55.0,51.0,30.01,South,170,3.0,6.0,87,0.00,,,0.00,,2013-01-12 06:02:00,
2013-01-12 01:12:00,55.0,51.0,30.01,South,170,3.0,6.0,87,0.00,,,0.00,,2013-01-12 06:12:00,
2013-01-12 01:22:00,54.0,50.0,30.00,South,175,1.0,7.0,87,0.00,,,0.00,,2013-01-12 06:22:00,
2013-01-12 01:33:00,54.0,51.0,30.01,South,169,2.0,6.0,88,0.00,,,0.00,,2013-01-12 06:33:00,
2013-01-12 01:42:00,54.0,51.0,30.01,South,169,2.0,6.0,88,0.00,,,0.00,,2013-01-12 06:42:00,
2013-01-12 01:52:00,54.0,51.0,30.00,SSE,168,4.0,7.0,89,0.00,,,0.00,,2013-01-12 06:52:00,
2013-01-12 02:02:00,54.0,51.0,30.01,South,172,4.0,7.0,88,0.00,,,0.00,,2013-01-12 07:02:00,
2013-01-12 02:12:00,54.0,51.0,30.00,South,172,3.0,7.0,89,0.00,,,0.00,,2013-01-12 07:12:00,
2013-01-12 02:22:00,54.0,51.0,30.00,South,172,3.0,7.0,89,0.00,,,0.00,,2013-01-12 07:22:00,
2013-01-12 02:32:00,55.0,52.0,30.00,SSE,163,4.0,9.0,90,0.00,,,0.00,,2013-01-12 07:32:00,
2013-01-12 02:42:00,55.0,52.0,30.00,SSE,163,4.0,9.0,90,0.00,,,0.00,,2013-01-12 07:42:00,
2013-01-12 02:52:00,55.0,52.0,30.00,SSE,166,5.0,9.0,90,0.00,,,0.00,,2013-01-12 07:52:00,
2013-01-12 03:02:00,55.0,52.0,30.01,SSE,168,3.0,8.0,91,0.00,,,0.00,,2013-01-12 08:02:00,
2013-01-12 03:12:00,55.0,52.0,30.01,SSE,168,3.0,8.0,91,0.00,,,0.00,,2013-01-12 08:12:00,
2013-01-12 03:22:00,55.0,52.0,30.01,SSE,168,3.0,6.0,91,0.00,,,0.00,,2013-01-12 08:22:00,
2013-01-12 03:32:00,56.0,54.0,30.01,SSE,165,3.0,7.0,92,0.00,,,0.00,,2013-01-12 08:32:00,
2013-01-12 03:42:00,56.0,54.0,30.01,SSE,165,3.0,7.0,92,0.00,,,0.00,,2013-01-12 08:42:00,
2013-01-12 03:52:00,56.0,54.0,30.01,SSE,166,2.0,8.0,92,0.00,,,0.00,,2013-01-12 08:52:00,
2013-01-12 04:02:00,57.0,55.0,30.02,South,174,2.0,10.0,92,0.00,,,0.00,,2013-01-12 09:02:00,
2013-01-12 04:12:00,57.0,55.0,30.02,South,174,2.0,10.0,92,0.00,,,0.00,,2013-01-12 09:12:00,
2013-01-12 04:22:00,57.0,55.0,30.02,South,173,3.0,8.0,93,0.00,,,0.00,,2013-01-12 09:22:00,
2013-01-12 04:32:00,57.0,55.0,30.01,South,181,3.0,9.0,93,0.00,,,0.00,,2013-01-12 09:32:00,
2013-01-12 04:42:00,57.0,55.0,30.01,South,181,3.0,9.0,93,0.00,,,0.00,,2013-01-12 09:42:00,
2013-01-12 04:53:00,57.0,55.0,30.02,SSE,161,4.0,9.0,93,0.00,,,0.00,,2013-01-12 09:53:00,
2013-01-12 05:02:00,57.0,55.0,30.02,SSE,162,2.0,7.0,93,0.00,,,0.00,,2013-01-12 10:02:00,
2013-01-12 05:12:00,57.0,55.0,30.02,SSE,162,2.0,7.0,93,0.00,,,0.00,,2013-01-12 10:12:00,
2013-01-12 05:22:00,57.0,55.0,30.01,SSE,162,1.0,5.0,92,0.00,,,0.00,,2013-01-12 10:22:00,
2013-01-12 05:32:00,57.0,55.0,30.02,SSE,162,1.0,4.0,92,0.00,,,0.00,,2013-01-12 10:32:00,
2013-01-12 05:42:00,57.0,55.0,30.02,SSE,162,1.0,4.0,92,0.00,,,0.00,,2013-01-12 10:42:00,
2013-01-12 05:52:00,57.0,55.0,30.01,SSE,162,0.0,6.0,93,0.00,,,0.00,,2013-01-12 10:52:00,
2013-01-12 06:02:00,57.0,55.0,30.02,SSE,162,0.0,3.0,93,0.00,,,0.00,,2013-01-12 11:02:00,
2013-01-12 06:12:00,57.0,55.0,30.02,SSE,162,0.0,4.0,93,0.00,,,0.00,,2013-01-12 11:12:00,
2013-01-12 06:22:00,57.0,55.0,30.02,SSE,162,0.0,4.0,93,0.00,,,0.00,,2013-01-12 11:22:00,
2013-01-12 06:33:00,57.0,55.0,30.02,SSE,162,0.0,4.0,93,0.00,,,0.00,,2013-01-12 11:33:00,
2013-01-12 06:42:00,57.0,55.0,30.02,SSE,162,0.0,4.0,93,0.00,,,0.00,,2013-01-12 11:42:00,
2013-01-12 06:52:00,57.0,55.0,30.02,SSE,162,1.0,4.0,93,0.00,,,0.00,,2013-01-12 11:52:00,
2013-01-12 07:03:00,57.0,55.0,30.04,SSE,162,1.0,3.0,93,0.00,,,0.00,,2013-01-12 12:03:00,
2013-01-12 07:12:00,57.0,55.0,30.04,SSE,162,1.0,3.0,93,0.00,,,0.00,,2013-01-12 12:12:00,
2013-01-12 07:22:00,57.0,55.0,30.04,SSE,162,0.0,4.0,93,0.00,,,0.00,,2013-01-12 12:22:00,
2013-01-12 07:33:00,57.0,55.0,30.04,SSE,162,0.0,0.0,93,0.00,,,0.00,,2013-01-12 12:33:00,
2013-01-12 07:42:00,57.0,55.0,30.04,SSE,162,0.0,0.0,93,0.00,,,0.00,,2013-01-12 12:42:00,
2013-01-12 07:52:00,57.0,55.0,30.05,SSE,162,0.0,0.0,93,0.00,,,0.00,,2013-01-12 12:52:00,
2013-01-12 08:02:00,56.0,54.0,30.06,SSE,162,0.0,0.0,93,0.00,,,0.00,,2013-01-12 13:02:00,
2013-01-12 08:12:00,56.0,54.0,30.06,SSE,162,0.0,0.0,93,0.00,,,0.00,,2013-01-12 13:12:00,
2013-01-12 08:23:00,56.0,54.0,30.06,SSE,162,0.0,3.0,94,0.00,,,0.00,,2013-01-12 13:23:00,
2013-01-12 08:33:00,56.0,54.0,30.06,SSE,162,2.0,4.0,93,0.00,,,0.00,,2013-01-12 13:33:00,
2013-01-12 08:42:00,56.0,54.0,30.06,SSE,162,2.0,4.0,93,0.00,,,0.00,,2013-01-12 13:42:00,
2013-01-12 08:53:00,56.0,54.0,30.06,SSE,162,0.0,6.0,94,0.00,,,0.00,,2013-01-12 13:53:00,
2013-01-12 09:02:00,57.0,55.0,30.06,SSE,162,2.0,5.0,93,0.00,,,0.00,,2013-01-12 14:02:00,
2013-01-12 09:12:00,57.0,55.0,30.06,SSE,162,2.0,5.0,93,0.00,,,0.00,,2013-01-12 14:12:00,
2013-01-12 09:22:00,57.0,55.0,30.06,SSE,162,0.0,4.0,94,0.00,,,0.00,,2013-01-12 14:22:00,
2013-01-12 09:33:00,58.0,56.0,30.08,SSE,162,1.0,4.0,94,0.00,,,0.00,,2013-01-12 14:33:00,
2013-01-12 09:43:00,58.0,56.0,30.08,SSE,162,1.0,4.0,94,0.00,,,0.00,,2013-01-12 14:43:00,
2013-01-12 09:53:00,58.0,57.0,30.08,SSE,162,0.0,5.0,95,0.00,,,0.00,,2013-01-12 14:53:00,
2013-01-12 10:03:00,59.0,58.0,30.08,SSE,162,1.0,3.0,95,0.00,,,0.00,,2013-01-12 15:03:00,
2013-01-12 10:12:00,59.0,58.0,30.07,SSE,162,3.0,7.0,95,0.00,,,0.00,,2013-01-12 15:12:00,
2013-01-12 10:22:00,59.0,58.0,30.07,SSE,162,3.0,7.0,95,0.00,,,0.00,,2013-01-12 15:22:00,
2013-01-12 10:33:00,59.0,57.0,30.06,SSE,162,3.0,7.0,94,0.00,,,0.00,,2013-01-12 15:33:00,
2013-01-12 10:43:00,59.0,57.0,30.06,SSE,162,3.0,7.0,94,0.00,,,0.00,,2013-01-12 15:43:00,
2013-01-12 10:53:00,60.0,59.0,30.06,SSE,162,3.0,6.0,95,0.00,,,0.00,,2013-01-12 15:53:00,
2013-01-12 11:03:00,60.0,58.0,30.06,SSE,162,1.0,4.0,94,0.00,,,0.00,,2013-01-12 16:03:00,
2013-01-12 11:12:00,60.0,58.0,30.06,SSE,162,1.0,4.0,94,0.00,,,0.00,,2013-01-12 16:12:00,
2013-01-12 11:23:00,60.0,59.0,30.06,SSE,162,2.0,5.0,95,0.00,,,0.00,,2013-01-12 16:23:00,
2013-01-12 11:33:00,61.0,59.0,30.05,SSE,162,2.0,5.0,94,0.00,,,0.00,,2013-01-12 16:33:00,
2013-01-12 11:42:00,61.0,59.0,30.05,SSE,163,2.0,8.0,94,0.00,,,0.00,,2013-01-12 16:42:00,
2013-01-12 11:53:00,61.0,59.0,30.05,SSE,163,2.0,8.0,94,0.00,,,0.00,,2013-01-12 16:53:00,
2013-01-12 12:02:00,62.0,60.0,30.04,SSE,163,4.0,7.0,93,0.00,,,0.00,,2013-01-12 17:02:00,
2013-01-12 12:12:00,62.0,60.0,30.04,SSE,165,3.0,9.0,93,0.00,,,0.00,,2013-01-12 17:12:00,
2013-01-12 12:23:00,62.0,60.0,30.04,SSE,165,3.0,9.0,93,0.00,,,0.00,,2013-01-12 17:23:00,
2013-01-12 12:33:00,63.0,61.0,30.03,SSE,166,2.0,5.0,92,0.00,,,0.00,,2013-01-12 17:33:00,
2013-01-12 12:43:00,63.0,61.0,30.03,SSE,166,2.0,5.0,92,0.00,,,0.00,,2013-01-12 17:43:00,
2013-01-12 12:53:00,63.0,61.0,30.03,SSE,166,2.0,6.0,92,0.00,,,0.00,,2013-01-12 17:53:00,
2013-01-12 13:03:00,64.0,61.0,30.03,South,172,2.0,4.0,90,0.00,,,0.00,,2013-01-12 18:03:00,
2013-01-12 13:12:00,64.0,61.0,30.03,South,172,2.0,4.0,90,0.00,,,0.00,,2013-01-12 18:12:00,
2013-01-12 13:23:00,63.0,60.0,30.03,South,177,1.0,5.0,89,0.00,,,0.00,,2013-01-12 18:23:00,
2013-01-12 13:33:00,64.0,61.0,30.02,South,177,2.0,5.0,89,0.00,,,0.00,,2013-01-12 18:33:00,
2013-01-12 13:42:00,64.0,61.0,30.02,South,177,2.0,5.0,89,0.00,,,0.00,,2013-01-12 18:42:00,
2013-01-12 13:52:00,64.0,61.0,30.02,South,177,2.0,3.0,89,0.00,,,0.00,,2013-01-12 18:52:00,
2013-01-12 14:03:00,64.0,60.0,30.01,South,179,1.0,5.0,88,0.00,,,0.00,,2013-01-12 19:03:00,
2013-01-12 14:12:00,64.0,60.0,30.01,South,179,1.0,5.0,88,0.00,,,0.00,,2013-01-12 19:12:00,
2013-01-12 14:23:00,64.0,60.0,30.02,South,179,2.0,4.0,87,0.00,,,0.00,,2013-01-12 19:23:00,
2013-01-12 14:33:00,64.0,60.0,30.02,South,179,1.0,3.0,87,0.00,,,0.00,,2013-01-12 19:33:00,
2013-01-12 14:43:00,64.0,60.0,30.02,South,179,1.0,3.0,87,0.00,,,0.00,,2013-01-12 19:43:00,
2013-01-12 14:52:00,64.0,60.0,30.02,South,179,1.0,4.0,87,0.00,,,0.00,,2013-01-12 19:52:00,
2013-01-12 15:03:00,64.0,60.0,30.01,South,179,0.0,1.0,87,0.00,,,0.00,,2013-01-12 20:03:00,
2013-01-12 15:12:00,64.0,60.0,30.01,South,179,0.0,0.0,88,0.00,,,0.00,,2013-01-12 20:12:00,
2013-01-12 15:22:00,64.0,60.0,30.01,South,179,0.0,0.0,88,0.00,,,0.00,,2013-01-12 20:22:00,
2013-01-12 15:33:00,64.0,60.0,30.00,South,179,0.0,2.0,87,0.00,,,0.00,,2013-01-12 20:33:00,
2013-01-12 15:42:00,64.0,60.0,30.00,South,179,0.0,2.0,87,0.00,,,0.00,,2013-01-12 20:42:00,
2013-01-12 15:53:00,64.0,60.0,30.00,South,179,1.0,2.0,87,0.00,,,0.00,,2013-01-12 20:53:00,
2013-01-12 16:03:00,65.0,61.0,30.00,South,179,0.0,2.0,87,0.00,,,0.00,,2013-01-12 21:03:00,
2013-01-12 16:12:00,65.0,61.0,29.99,South,179,0.0,4.0,87,0.00,,,0.00,,2013-01-12 21:12:00,
2013-01-12 16:22:00,65.0,61.0,29.99,South,179,0.0,4.0,87,0.00,,,0.00,,2013-01-12 21:22:00,
2013-01-12 16:33:00,64.0,60.0,29.98,South,179,0.0,2.0,87,0.00,,,0.00,,2013-01-12 21:33:00,
2013-01-12 16:43:00,64.0,60.0,29.98,South,179,0.0,2.0,87,0.00,,,0.00,,2013-01-12 21:43:00,
2013-01-12 16:52:00,64.0,60.0,29.98,South,179,1.0,3.0,87,0.00,,,0.00,,2013-01-12 21:52:00,
2013-01-12 17:03:00,64.0,60.0,29.97,South,179,2.0,3.0,88,0.00,,,0.00,,2013-01-12 22:03:00,
2013-01-12 17:12:00,64.0,60.0,29.97,South,179,2.0,3.0,88,0.00,,,0.00,,2013-01-12 22:12:00,
2013-01-12 17:23:00,64.0,60.0,29.97,South,179,1.0,3.0,88,0.00,,,0.00,,2013-01-12 22:23:00,
2013-01-12 17:33:00,64.0,61.0,29.97,South,179,1.0,3.0,89,0.00,,,0.00,,2013-01-12 22:33:00,
2013-01-12 17:43:00,64.0,61.0,29.96,South,179,0.0,4.0,90,0.00,,,0.00,,2013-01-12 22:43:00,
2013-01-12 17:52:00,64.0,61.0,29.96,South,179,0.0,4.0,90,0.00,,,0.00,,2013-01-12 22:52:00,
2013-01-12 18:03:00,64.0,61.0,29.97,South,176,0.0,0.0,91,0.00,,,0.00,,2013-01-12 23:03:00,
2013-01-12 18:12:00,63.0,60.0,29.97,South,176,0.0,2.0,91,0.00,,,0.00,,2013-01-12 23:12:00,
2013-01-12 18:22:00,63.0,60.0,29.97,South,176,0.0,2.0,91,0.00,,,0.00,,2013-01-12 23:22:00,
2013-01-12 18:33:00,63.0,61.0,29.97,SSE,168,3.0,7.0,92,0.00,,,0.00,,2013-01-12 23:33:00,
2013-01-12 18:43:00,63.0,61.0,29.97,SSE,168,3.0,7.0,92,0.00,,,0.00,,2013-01-12 23:43:00,
2013-01-12 18:53:00,63.0,61.0,29.96,SSE,167,1.0,5.0,92,0.00,,,0.00,,2013-01-12 23:53:00,
2013-01-12 19:03:00,63.0,61.0,29.94,SSE,167,2.0,9.0,93,0.00,,,0.00,,2013-01-13 00:03:00,
2013-01-12 19:12:00,63.0,61.0,29.94,SSE,167,2.0,9.0,93,0.00,,,0.00,,2013-01-13 00:12:00,
2013-01-12 19:23:00,63.0,61.0,29.93,South,169,6.0,12.0,93,0.00,,,0.00,,2013-01-13 00:23:00,
2013-01-12 19:33:00,63.0,61.0,29.92,SSE,155,2.0,7.0,93,0.00,,,0.00,,2013-01-13 00:33:00,
2013-01-12 19:43:00,63.0,61.0,29.92,SSE,155,2.0,7.0,93,0.00,,,0.00,,2013-01-13 00:43:00,
2013-01-12 19:52:00,63.0,61.0,29.91,SSE,161,1.0,8.0,93,0.00,,,0.00,,2013-01-13 00:52:00,
2013-01-12 20:03:00,63.0,61.0,29.92,SSE,154,2.0,7.0,93,0.00,,,0.00,,2013-01-13 01:03:00,
2013-01-12 20:12:00,63.0,61.0,29.92,SSE,154,2.0,7.0,93,0.00,,,0.00,,2013-01-13 01:12:00,
2013-01-12 20:23:00,63.0,61.0,29.92,SSE,168,3.0,10.0,93,0.00,,,0.00,,2013-01-13 01:23:00,
2013-01-12 20:33:00,63.0,61.0,29.91,South,178,3.0,10.0,93,0.00,,,0.00,,2013-01-13 01:33:00,
2013-01-12 20:43:00,63.0,61.0,29.91,South,178,3.0,10.0,93,0.00,,,0.00,,2013-01-13 01:43:00,
2013-01-12 20:52:00,63.0,61.0,29.91,SSE,156,4.0,10.0,93,0.00,,,0.00,,2013-01-13 01:52:00,
2013-01-12 21:02:00,63.0,61.0,29.91,South,173,5.0,16.0,93,0.00,,,0.00,,2013-01-13 02:02:00,
2013-01-12 21:12:00,63.0,61.0,29.91,South,173,5.0,16.0,93,0.00,,,0.00,,2013-01-13 02:12:00,
2013-01-12 21:22:00,63.0,61.0,29.90,SE,139,6.0,14.0,93,0.00,,,0.00,,2013-01-13 02:22:00,
2013-01-12 21:33:00,63.0,61.0,29.90,SSE,166,9.0,13.0,93,0.00,,,0.00,,2013-01-13 02:33:00,
2013-01-12 21:43:00,63.0,61.0,29.90,SSE,166,9.0,13.0,93,0.00,,,0.00,,2013-01-13 02:43:00,
2013-01-12 21:52:00,63.0,61.0,29.91,South,174,5.0,14.0,92,0.00,,,0.00,,2013-01-13 02:52:00,
2013-01-12 22:03:00,64.0,62.0,29.90,South,179,9.0,16.0,92,0.00,,,0.00,,2013-01-13 03:03:00,
2013-01-12 22:12:00,64.0,62.0,29.90,South,179,9.0,16.0,92,0.00,,,0.00,,2013-01-13 03:12:00,
2013-01-12 22:22:00,64.0,62.0,29.88,South,173,6.0,16.0,92,0.01,,,0.01,,2013-01-13 03:22:00,
2013-01-12 22:33:00,63.0,61.0,29.87,South,182,7.0,16.0,92,0.01,,,0.01,,2013-01-13 03:33:00,
2013-01-12 22:43:00,63.0,61.0,29.87,South,182,7.0,16.0,92,0.01,,,0.01,,2013-01-13 03:43:00,
2013-01-12 22:52:00,63.0,61.0,29.87,South,182,7.0,16.0,92,0.01,,,0.01,,2013-01-13 03:52:00,
2013-01-12 23:03:00,63.0,61.0,29.88,South,178,10.0,19.0,92,0.01,,,0.01,,2013-01-13 04:03:00,
2013-01-12 23:12:00,63.0,61.0,29.88,South,178,10.0,19.0,92,0.01,,,0.01,,2013-01-13 04:12:00,
2013-01-12 23:22:00,64.0,62.0,29.87,SSE,159,7.0,17.0,92,0.00,,,0.01,,2013-01-13 04:22:00,
2013-01-12 23:33:00,64.0,61.0,29.87,SSE,163,6.0,18.0,91,0.00,,,0.01,,2013-01-13 04:33:00,
2013-01-12 23:42:00,64.0,61.0,29.87,SSE,163,6.0,18.0,91,0.00,,,0.01,,2013-01-13 04:42:00,
2013-01-12 23:52:00,64.0,61.0,29.87,SSE,168,7.0,13.0,91,0.00,,,0.01,,2013-01-13 04:52:00,